This demonstration page uses our WeatherBlox Daily Observations layout. Learn more.

Left ArrowRight Arrow

Hourly Observations for May 29, 2021

Temp ( °F °C ) Dew Point ( °F °C ) Humidity (%) Winds ( mph kmh ) Pressure ( in mb ) Visibility ( mi km ) Precip ( " mm )
12:15 am 00:15 Cloudy with Light Rain 54 12 54 12 100 100 ENE 6 9 29.79 1009 10 16 0.00 0.00
12:35 am 00:35 Cloudy 54 12 54 12 100 100 NE 6 9 29.79 1009 10 16 0.00 0.00
12:55 am 00:55 Cloudy with Light Rain 52 11 52 11 100 100 NNE 5 7 29.78 1009 10 16 0.00 0.00
1:15 am 01:15 Cloudy with Light Rain 52 11 52 11 100 100 NNE 5 7 29.79 1009 7 11 0.00 0.00
1:35 am 01:35 Cloudy 50 10 50 10 100 100 NE 9 15 29.79 1009 10 16 0.00 0.00
1:55 am 01:55 Cloudy with Light Rain 50 10 50 10 100 100 NE 10 17 29.79 1009 10 16 0.01 0.25
2:15 am 02:15 Cloudy with Drizzle 50 10 50 10 100 100 ENE 10 17 29.79 1009 7 11 0.00 0.00
2:35 am 02:35 Cloudy 48 9 48 9 100 100 ENE 9 15 29.79 1009 10 16 0.00 0.00
2:55 am 02:55 Cloudy 48 9 48 9 100 100 ENE 8 13 29.79 1009 10 16 0.00 0.00
3:15 am 03:15 Cloudy with Light Rain 48 9 48 9 100 100 NE 8 13 29.78 1008 10 16 0.00 0.00
3:35 am 03:35 Cloudy with Rain 46 8 46 8 100 100 NE 7 11 29.79 1009 4 6 0.02 0.51
3:55 am 03:55 Cloudy with Rain 46 8 46 8 100 100 NE 8 13 29.78 1008 5 8 0.04 1.02
4:15 am 04:15 Cloudy with Rain 46 8 46 8 100 100 NE 8 13 29.80 1009 5 8 0.02 0.51
4:35 am 04:35 Cloudy with Heavy Rain 45 7 45 7 100 100 NNE 8 13 29.80 1009 5 8 0.07 1.78
4:55 am 04:55 Cloudy with Rain 45 7 45 7 100 100 NNE 8 13 29.80 1009 5 8 0.10 2.54
5:15 am 05:15 Cloudy with Light Rain 45 7 45 7 100 100 NNE 10 17 29.82 1010 10 16 0.00 0.00
5:35 am 05:35 Cloudy with Light Rain 45 7 45 7 100 100 NE 10 17 29.82 1010 5 8 0.03 0.76
5:55 am 05:55 Cloudy with Light Rain 45 7 45 7 100 100 NNE 8 13 29.84 1011 10 16 0.03 0.76
6:15 am 06:15 Cloudy with Drizzle 45 7 45 7 100 100 NNE 7 11 29.85 1011 10 16 0.00 0.00
6:35 am 06:35 Cloudy with Drizzle 43 6 43 6 100 100 NNE 9 15 29.86 1011 7 11 0.00 0.00
6:55 am 06:55 Cloudy with Mist and Fog 43 6 43 6 100 100 NNE 8 13 29.88 1012 5 8 0.00 0.00
7:15 am 07:15 Cloudy with Light Rain 43 6 43 6 100 100 NNE 9 15 29.88 1012 3 4 0.01 0.25
7:35 am 07:35 Cloudy with Mist and Fog 43 6 43 6 100 100 NNE 8 13 29.89 1012 4 6 0.01 0.25
7:55 am 07:55 Cloudy with Light Rain 43 6 43 6 100 100 NNE 10 17 29.90 1013 4 6 0.02 0.51
8:15 am 08:15 Cloudy with Mist and Fog 43 6 43 6 100 100 NE 10 17 29.91 1013 5 8 0.00 0.00
8:35 am 08:35 Cloudy 43 6 43 6 100 100 NNE 9 15 29.91 1013 7 11 0.00 0.00
8:55 am 08:55 Cloudy 43 6 43 6 100 100 NNE 8 13 29.93 1014 10 16 0.00 0.00
9:15 am 09:15 Cloudy 43 6 43 6 100 100 NNE 10 17 29.94 1014 10 16 0.00 0.00
9:35 am 09:35 Cloudy with Mist and Fog 43 6 43 6 100 100 NNE 10 17 29.95 1014 5 8 0.00 0.00
9:55 am 09:55 Cloudy with Mist and Fog 43 6 43 6 100 100 NNE 8 13 29.96 1015 4 6 0.00 0.00
10:15 am 10:15 Cloudy 43 6 43 6 100 100 NE 12 19 29.96 1015 7 11 0.00 0.00
10:35 am 10:35 Cloudy with Mist and Fog 43 6 43 6 100 100 NE 8 13 29.96 1015 5 8 0.00 0.00
10:55 am 10:55 Cloudy 43 6 43 6 100 100 NE 12 19 29.97 1015 10 16 0.00 0.00
11:15 am 11:15 Cloudy with Light Rain 45 7 43 6 93 93 NE 8 13 29.98 1015 4 6 0.00 0.00
11:35 am 11:35 Cloudy 45 7 43 6 93 93 NE 8 13 29.98 1015 7 11 0.00 0.00
11:55 am 11:55 Cloudy 45 7 43 6 93 93 NNE 14 22 29.98 1015 10 16 0.00 0.00
12:15 pm 12:15 Cloudy 45 7 43 6 93 93 NE 10 17 29.99 1016 7 11 0.00 0.00
12:35 pm 12:35 Cloudy 45 7 43 6 93 93 NE 13 20 30.00 1016 10 16 0.00 0.00
12:55 pm 12:55 Cloudy with Light Rain 46 8 43 6 87 87 NE 13 20 29.99 1016 10 16 0.00 0.00
1:15 pm 13:15 Cloudy 46 8 43 6 87 87 NE 10 17 29.99 1016 10 16 0.00 0.00
1:35 pm 13:35 Cloudy 46 8 43 6 87 87 NNE 12 19 30.00 1016 10 16 0.00 0.00
1:55 pm 13:55 Cloudy 46 8 43 6 87 87 NNE 8 13 30.01 1016 10 16 0.00 0.00
2:15 pm 14:15 Cloudy 45 7 43 6 93 93 NNE 9 15 30.01 1016 10 16 0.00 0.00
2:35 pm 14:35 Cloudy 45 7 43 6 93 93 NNE 10 17 30.02 1017 10 16 0.00 0.00
2:55 pm 14:55 Cloudy 46 8 43 6 87 87 NE 9 15 30.02 1017 10 16 0.00 0.00
3:15 pm 15:15 Cloudy 46 8 43 6 87 87 ENE 10 17 30.03 1017 10 16 0.00 0.00
3:35 pm 15:35 Cloudy 46 8 43 6 87 87 ENE 13 20 30.03 1017 10 16 0.00 0.00
3:55 pm 15:55 Cloudy 46 8 43 6 87 87 NE 9 15 30.03 1017 10 16 0.00 0.00
4:15 pm 16:15 Cloudy 46 8 43 6 87 87 NE 5 7 30.03 1017 10 16 0.00 0.00
4:35 pm 16:35 Cloudy 46 8 43 6 87 87 NE 8 13 30.06 1018 10 16 0.00 0.00
4:55 pm 16:55 Cloudy 46 8 43 6 87 87 NE 7 11 30.07 1018 10 16 0.00 0.00
5:15 pm 17:15 Cloudy with Light Rain 46 8 43 6 87 87 NNE 8 13 30.08 1019 10 16 0.00 0.00
5:35 pm 17:35 Cloudy with Drizzle 46 8 43 6 87 87 ENE 7 11 30.08 1019 10 16 0.00 0.00
5:55 pm 17:55 Cloudy with Light Rain 46 8 43 6 87 87 ENE 8 13 30.08 1019 10 16 0.00 0.00
6:15 pm 18:15 Cloudy with Light Rain 46 8 45 7 93 93 ENE 9 15 30.07 1018 10 16 0.00 0.00
6:35 pm 18:35 Cloudy with Light Rain 45 7 45 7 100 100 N 7 11 30.09 1019 10 16 0.01 0.25
6:55 pm 18:55 Cloudy with Light Rain 45 7 45 7 100 100 N 6 9 30.11 1020 10 16 0.02 0.51
7:15 pm 19:15 Cloudy with Light Rain 45 7 45 7 100 100 NNE 6 9 30.11 1020 5 8 0.00 0.00
7:35 pm 19:35 Cloudy with Drizzle 45 7 45 7 100 100 NNE 8 13 30.10 1019 3 4 0.01 0.25
7:55 pm 19:55 Cloudy with Drizzle 43 6 43 6 100 100 NE 8 13 30.10 1019 3 5 0.01 0.25
8:15 pm 20:15 Cloudy with Light Rain 43 6 43 6 100 100 NE 10 17 30.10 1019 3 5 0.00 0.00
8:35 pm 20:35 Cloudy with Drizzle 43 6 43 6 100 100 NE 9 15 30.11 1020 10 16 0.00 0.00
8:55 pm 20:55 Cloudy 43 6 43 6 100 100 NE 7 11 30.11 1020 10 16 0.00 0.00
9:15 pm 21:15 Cloudy 43 6 43 6 100 100 NE 10 17 30.12 1020 10 16 0.00 0.00
9:35 pm 21:35 Cloudy 43 6 43 6 100 100 NE 6 9 30.13 1020 10 16 0.00 0.00
9:55 pm 21:55 Cloudy 43 6 43 6 100 100 NE 7 11 30.13 1020 10 16 0.00 0.00
10:15 pm 22:15 Cloudy 43 6 43 6 100 100 NE 3 6 30.14 1021 10 16 0.00 0.00
10:35 pm 22:35 Cloudy 43 6 43 6 100 100 NNE 6 9 30.15 1021 10 16 0.00 0.00
10:55 pm 22:55 Cloudy 43 6 43 6 100 100 NNE 6 9 30.14 1021 10 16 0.00 0.00
11:15 pm 23:15 Cloudy 43 6 43 6 100 100 NNE 7 11 30.15 1021 10 16 0.00 0.00
11:35 pm 23:35 Cloudy 43 6 43 6 100 100 NNE 6 9 30.16 1021 10 16 0.00 0.00
11:55 pm 23:55 Cloudy 43 6 43 6 100 100 NE 9 15 30.14 1021 10 16 0.00 0.00

Powered by AerisWeather